Airfield :
LOGIN :

Register | Disclaimer

   EN    FR    IT 

 










Legend :    VFR   Marginal VFR   IFR   Intensive IFR   Very Intensive IFR
Visi :
Ceiling :
>= 8 km
>= 3000ft
5 to 8 km
1000 to 3000 ft
1500m to 5 km
500 to 1000 ft
800 to 1500m
200 to 500 ft
< 800m
< 200 ft
Symbols :   Thunderstorms  Fog  Heavy snow  Heavy precipitations  Wind > 20 kt
SIGMETs :     Misc.  Thunderstorms  Icing  Turbulence  Mountain Waves  Volcanic Ashes







- Airport Elevation : 453 ft
- IATA code : SBK
- Download approach charts


LFRT - St Brieuc Armor

CURRENT METAR :
  • 211430Z AUTO 06007KT 040V110 9999 BKN041 BKN052 22/16 Q1015

EXPIRED METARs :
  • 211400Z AUTO 08007KT 050V110 9999 FEW019 SCT027 BKN036 21/17 Q1015
  • 211330Z AUTO 10004KT 020V160 9999 SCT021 BKN028 OVC056 22/16 Q1015
  • 211300Z AUTO 12003KT 060V180 9999 BKN022 BKN031 OVC041 20/16 Q1015
  • 211230Z AUTO 17004KT 130V220 9999 BKN022 BKN034 OVC044 21/16 Q1015
  • 211200Z AUTO 15004KT 100V240 9999 BKN019 BKN030 OVC035 20/16 Q1014

Expired Forecast.
No reported NOTAMs for that airfield.



MET'MAP, your aeronautical weather chart ! - Copyright ORBIFLY December 2007 - Disclaimer

ORBIFLY MET'MAP TEAM :

Programming & Development : Alexandra Zaïnal
Concept & Development : Baudouin d'Aumeries
Co-Development & Prog : Marc-Olivier Méhu
Technical & hardware support : Manuel Goepfert

Contact : metmap@orbifly.com




SOURCES & CREDITS :

   NOAA